Wind_Speed
9 10 9 8 9 10 12 14 17 19 21 22 23 24 24 26 26 25 25 25 25 26 28 30 32 32 33 33 30 29 26 38 42 42 42 41 40 34 30 25 29 31 42 41 44 47 50
9 10 9 9 10 11 13 15 17 20 21 23 24 24 25 27 27 27 27 28 29 30 31 32 34 34 32 24 24 22 37 39 39 41 38 36 35 34 37 23 24 29 35 38 37 39 38
10 10 10 10 11 12 13 15 18 19 21 23 25 26 26 28 28 28 28 28 30 32 34 35 34 34 24 19 27 39 36 35 38 38 37 33 31 27 26 31 20 21 29 31 34 35 32
10 10 11 11 12 13 14 16 18 19 22 24 25 26 28 28 28 29 29 30 31 33 36 34 34 26 15 26 35 34 33 36 33 30 29 27 22 24 18 21 27 28 29 32 25 23 24
10 10 10 11 12 13 15 17 19 20 22 23 24 26 27 27 28 30 32 33 32 34 34 32 26 16 12 35 35 33 37 39 34 28 22 14 18 15 17 21 25 25 31 32 34 30 34
10 10 10 11 12 13 16 18 20 21 22 22 23 25 26 26 28 31 32 33 36 36 30 24 11 10 26 35 36 35 38 35 28 25 15 15 13 15 15 18 25 31 33 36 40 37 36
9 10 10 11 12 14 16 19 21 22 23 24 23 24 25 26 28 29 29 32 36 31 32 21 12 21 30 34 31 36 37 30 22 14 18 16 12 13 16 19 22 26 30 36 37 32 30
9 9 10 10 11 13 16 19 21 22 24 25 27 27 25 26 28 28 30 30 29 30 26 11 16 27 29 34 26 33 34 27 19 18 21 12 5 15 19 23 23 25 31 35 38 31 29
9 9 9 9 11 14 17 19 20 21 24 26 28 28 30 31 31 31 32 32 32 26 14 6 23 27 32 32 24 32 33 25 17 18 21 11 12 19 20 23 23 24 28 35 37 37 36
9 9 8 9 11 13 17 18 20 21 23 26 27 28 32 33 32 33 33 34 33 21 2 9 19 24 27 29 17 26 26 29 19 19 17 10 18 21 18 20 20 29 29 33 36 35 33
9 9 8 9 11 14 17 18 19 21 25 26 26 29 31 32 32 31 32 32 25 13 3 19 20 26 23 24 24 21 23 29 14 20 12 20 19 13 16 19 22 30 35 37 41 42 32
9 9 9 9 12 14 16 17 19 22 26 26 28 31 30 31 31 30 32 29 15 6 4 17 21 27 19 21 18 18 18 24 14 17 13 18 12 10 16 23 25 28 39 38 22 12 6
9 9 9 10 13 15 16 17 19 23 25 27 30 31 30 31 31 32 32 27 10 5 22 13 25 25 18 21 17 19 20 25 27 23 30 21 12 9 16 27 23 30 35 13 7 3 4
9 8 8 10 14 15 16 18 21 23 25 28 30 31 29 31 30 32 31 27 6 14 14 22 22 15 11 19 17 20 17 15 20 20 22 19 11 13 23 22 20 23 27 12 8 8 14
9 8 9 11 14 15 16 19 21 23 27 29 30 31 30 30 29 31 29 10 11 19 20 22 19 9 10 14 17 16 15 12 22 24 20 17 13 19 15 16 19 24 29 24 16 20 14
9 8 9 11 13 14 16 19 21 25 27 30 31 30 27 29 28 29 24 15 17 19 18 14 9 8 13 19 16 20 11 11 23 20 20 14 21 11 24 12 12 24 27 19 13 6 12
9 9 10 11 13 14 17 19 22 25 28 29 30 29 27 25 26 27 25 21 21 20 18 11 9 11 12 18 20 13 9 14 20 25 22 19 14 21 23 23 15 28 27 15 13 9 6
9 8 10 12 14 15 17 20 22 25 28 29 29 24 26 23 25 29 25 23 22 19 17 11 11 12 10 16 16 10 10 13 20 25 21 13 15 24 32 13 8 21 36 20 9 13 12
8 7 10 14 15 15 17 21 23 27 29 31 29 24 25 21 24 27 25 23 21 18 17 12 10 10 13 15 14 12 12 19 17 25 17 22 12 21 14 7 11 16 42 23 13 18 10
10 9 12 14 15 16 18 22 25 28 30 31 29 23 26 21 27 24 24 22 19 19 16 15 12 12 13 19 8 16 24 18 25 19 15 18 15 16 15 28 26 15 42 26 14 14 19
11 12 14 16 15 17 19 22 25 28 30 31 28 23 24 23 27 25 24 22 19 17 14 16 12 9 16 16 24 7 25 28 21 11 16 19 13 21 26 10 8 9 40 27 23 20 17
15 16 16 16 16 18 22 23 26 28 30 28 25 24 25 22 25 24 22 21 18 17 15 15 15 16 15 18 18 29 28 20 14 14 20 18 14 27 19 6 13 7 37 32 27 19 30
17 19 18 18 18 21 23 23 26 27 29 27 25 24 24 23 24 23 20 20 19 18 15 15 17 20 17 17 22 22 16 12 14 12 18 20 23 25 7 19 10 1 34 38 26 18 30
18 19 22 20 21 24 24 23 25 27 27 26 24 24 24 23 21 22 20 19 19 17 16 16 17 18 19 19 19 15 8 10 8 11 15 21 23 12 15 22 1 4 34 36 26 11 17
20 23 23 22 24 25 24 24 26 27 26 24 23 23 23 23 19 22 21 17 18 16 16 16 16 16 19 19 16 9 6 7 6 8 9 18 14 12 11 17 4 7 46 41 25 14 24
23 24 24 25 26 27 26 25 27 26 25 22 20 21 23 24 21 19 21 17 16 14 15 15 15 14 15 16 12 8 6 11 5 11 12 15 8 10 16 6 5 13 43 31 14 8 43
27 24 25 26 28 25 26 27 26 26 24 21 20 20 23 23 22 18 18 17 16 14 14 12 14 14 13 11 9 7 6 13 7 13 18 17 14 14 14 6 3 17 41 28 16 29 44
29 28 28 26 27 25 26 25 24 25 24 21 19 21 22 23 19 22 13 16 15 13 12 12 11 13 11 9 6 7 7 9 10 18 10 11 12 12 11 7 5 31 32 31 33 35 33
28 29 31 28 25 25 23 23 23 24 22 18 18 19 21 22 20 16 16 16 14 12 9 11 9 10 8 8 7 6 9 8 16 9 15 4 16 12 6 12 15 28 23 32 32 32 31
Wind_Direction
335 340 343 349 357 358 355 357 354 351 354 351 350 348 344 343 342 342 340 336 334 331 329 325 322 317 315 310 311 315 322 320 321 322 319 317 314 307 295 280 269 258 260 264 267 267 266
336 340 344 349 357 356 354 357 354 354 352 349 347 347 346 340 342 344 341 338 334 332 329 326 322 319 318 319 323 320 324 323 322 318 317 314 305 299 295 296 282 281 278 275 275 272 264
332 337 342 352 352 352 355 354 355 353 350 348 349 347 345 344 343 344 339 337 334 332 329 328 324 324 323 333 330 331 332 329 327 326 320 316 310 305 299 300 297 290 289 282 278 278 275
327 337 345 350 350 350 352 352 353 353 348 352 349 347 346 346 342 341 339 338 335 333 331 328 327 326 324 329 334 333 329 332 331 324 313 311 307 305 307 295 296 295 291 285 289 284 280
328 337 345 350 345 348 349 352 351 348 351 352 349 351 346 345 342 342 340 337 335 333 332 327 329 338 335 331 333 336 337 340 345 346 352 330 325 317 316 308 304 300 304 301 295 287 288
324 332 344 346 343 346 351 349 348 347 353 352 351 352 344 345 345 344 339 339 334 335 327 328 343 348 326 338 341 347 346 350 354 6 353 336 335 331 323 313 306 303 297 293 290 290 285
319 328 339 340 344 347 347 347 346 347 353 349 352 352 345 348 348 343 341 340 337 334 322 322 322 332 336 342 344 354 349 3 1 6 353 345 345 343 321 309 300 295 290 290 292 297 290
314 325 334 338 342 344 346 345 345 350 351 348 352 348 349 352 349 347 347 342 335 325 314 313 329 343 350 350 350 356 355 2 356 353 348 352 342 324 316 309 301 296 293 291 294 297 290
309 319 323 335 341 344 345 341 348 351 349 351 351 346 352 353 351 350 348 345 339 332 321 313 340 348 352 357 354 355 355 1 355 349 347 329 321 325 322 321 314 306 300 301 297 300 288
302 305 317 335 340 341 340 342 348 350 351 354 348 349 354 350 351 353 350 347 342 336 351 318 346 352 344 352 1 358 355 4 0 336 339 324 316 321 319 325 324 312 316 306 301 299 289
294 297 318 333 337 338 339 344 348 347 354 352 349 356 352 349 353 353 351 348 344 343 289 332 338 338 348 356 348 344 356 2 344 336 330 314 316 322 330 329 330 316 324 301 300 290 281
289 302 317 328 335 338 340 345 345 350 352 350 355 356 352 351 351 354 354 350 355 12 6 321 326 336 341 353 352 346 354 356 352 356 335 317 300 326 317 332 329 328 330 320 298 281 256
286 299 312 328 335 339 342 343 345 351 348 354 355 355 352 351 354 355 355 354 9 22 317 313 326 334 340 345 354 348 357 354 7 353 340 342 319 308 337 330 334 342 342 337 355 247 303
276 288 308 324 332 338 340 342 348 345 350 354 353 353 352 354 354 357 357 2 355 332 318 323 330 340 337 350 346 346 352 356 2 4 341 345 334 337 337 338 328 347 349 332 312 324 309
275 286 304 320 329 336 340 344 343 346 349 351 352 353 352 354 354 358 358 6 340 328 323 330 349 344 339 335 337 341 345 344 2 6 2 333 309 330 343 339 348 343 346 327 271 288 288
269 281 304 319 325 332 342 342 345 347 347 349 350 352 350 352 355 357 2 5 344 336 337 342 340 333 327 334 341 340 342 338 353 355 353 316 304 313 338 336 334 357 346 338 327 308 325
263 286 304 315 320 332 339 342 345 345 345 348 348 350 351 350 357 359 6 0 348 343 346 348 329 312 316 329 331 336 323 337 337 343 347 328 304 296 328 333 336 9 357 355 306 278 327
265 288 305 313 324 329 334 339 343 342 343 346 349 350 348 349 358 0 4 0 356 353 347 342 334 328 313 330 324 323 316 317 335 335 336 338 303 307 311 309 357 9 7 2 347 335 328
255 284 303 318 322 323 330 336 341 340 342 344 349 349 348 353 358 0 359 0 2 357 347 343 331 328 322 320 320 310 324 326 321 336 335 340 313 317 329 344 336 358 7 4 348 347 15
258 283 301 315 317 321 329 333 337 338 340 343 348 346 348 351 357 359 0 1 0 356 346 339 332 333 324 326 313 300 314 323 319 325 327 329 304 293 300 301 308 353 358 8 2 359 326
267 287 303 315 317 322 327 330 334 336 338 342 347 349 352 347 354 356 359 359 1 358 350 342 339 330 327 321 321 305 318 324 331 336 345 332 312 321 316 318 268 326 0 5 9 354 0
274 284 295 309 311 317 324 326 330 333 335 339 344 351 349 348 352 352 356 357 355 356 353 346 335 334 331 314 303 308 317 335 324 327 339 338 314 325 329 327 327 274 356 7 3 336 349
261 282 293 299 304 313 319 321 325 328 331 338 344 344 348 346 351 353 351 348 350 354 355 344 336 331 339 328 319 319 313 321 319 323 340 337 334 331 302 331 310 76 358 1 354 334 346
268 277 282 291 303 311 313 315 320 324 330 337 339 341 345 347 351 351 351 349 349 348 347 341 337 333 338 338 330 330 332 334 332 336 349 337 332 328 307 340 74 9 350 359 349 315 332
263 274 287 300 303 306 307 314 318 321 326 332 334 337 344 348 346 348 349 348 346 344 345 340 336 336 341 346 359 355 337 331 336 342 343 335 330 327 330 321 277 0 354 357 349 337 342
265 267 278 286 295 300 308 308 313 316 320 326 329 334 343 346 345 343 345 346 345 344 343 342 340 341 351 1 358 344 346 335 321 335 321 343 326 337 331 312 354 330 349 358 355 313 351
266 274 282 287 286 298 301 303 305 311 315 322 327 335 341 342 342 343 343 344 342 345 344 343 344 352 357 11 359 350 336 335 323 336 337 352 353 351 347 330 316 327 343 1 26 329 352
270 275 282 286 282 291 301 302 303 308 312 319 326 333 338 339 339 340 338 339 340 342 344 339 344 348 3 20 9 348 331 329 332 325 329 343 350 350 344 343 347 330 346 2 342 343 343
272 275 282 284 283 287 301 296 301 306 308 312 317 329 334 335 331 333 337 338 336 334 336 335 338 341 351 5 348 341 325 318 323 327 332 334 319 313 304 294 313 329 333 343 340 342 348
Height
3153 3152 3150 3148 3147 3146 3144 3142 3139 3135 3132 3128 3125 3122 3117 3113 3110 3107 3103 3099 3096 3091 3086 3081 3077 3072 3066 3061 3058 3054 3050 3043 3037 3032 3028 3025 3021 3017 3016 3014 3012 3007 3002 3002 3003 3002 3001
3152 3151 3149 3148 3147 3146 3144 3142 3138 3135 3131 3127 3124 3120 3116 3112 3108 3104 3099 3095 3091 3087 3082 3076 3070 3065 3061 3056 3052 3050 3046 3038 3033 3028 3025 3021 3014 3010 3004 3003 3003 2999 2995 2991 2990 2988 2988
3151 3150 3149 3148 3147 3145 3143 3141 3138 3134 3131 3126 3122 3119 3115 3109 3105 3101 3096 3092 3086 3081 3075 3070 3064 3059 3054 3052 3047 3044 3038 3031 3026 3021 3014 3010 3007 3003 3001 2996 2995 2992 2987 2984 2981 2980 2979
3151 3149 3148 3147 3146 3144 3142 3140 3137 3134 3130 3125 3121 3116 3111 3107 3102 3097 3093 3088 3082 3076 3070 3065 3058 3053 3049 3046 3045 3040 3032 3029 3025 3018 3011 3008 3003 2998 2998 2996 2991 2988 2985 2977 2976 2975 2973
3150 3149 3147 3147 3145 3143 3140 3138 3135 3132 3128 3124 3120 3114 3110 3105 3100 3093 3089 3083 3078 3072 3066 3060 3056 3052 3048 3042 3041 3035 3029 3020 3013 3007 3002 3000 2998 2996 2995 2992 2988 2985 2977 2973 2969 2971 2966
3149 3148 3147 3145 3144 3141 3139 3136 3133 3130 3127 3123 3119 3113 3109 3103 3097 3091 3084 3079 3072 3067 3063 3057 3054 3053 3048 3040 3033 3028 3021 3015 3007 3002 3002 2999 2996 2994 2992 2990 2986 2982 2976 2971 2964 2964 2961
3148 3147 3146 3144 3142 3140 3137 3134 3131 3127 3123 3121 3117 3114 3108 3102 3096 3092 3085 3078 3071 3063 3057 3055 3052 3051 3045 3039 3031 3026 3017 3011 3005 3005 3000 2997 2996 2993 2990 2988 2983 2979 2973 2966 2958 2956 2952
3146 3145 3144 3142 3141 3138 3136 3133 3129 3125 3121 3117 3112 3109 3106 3101 3095 3089 3082 3076 3070 3066 3054 3052 3050 3046 3040 3033 3027 3023 3017 3009 3004 3002 2998 2996 2994 2990 2986 2982 2978 2973 2966 2958 2949 2948 2945
3145 3144 3142 3141 3139 3137 3134 3131 3128 3123 3119 3114 3109 3104 3099 3094 3090 3084 3077 3072 3064 3056 3053 3050 3047 3042 3036 3032 3025 3021 3015 3009 3003 3000 2997 2995 2992 2987 2983 2978 2973 2968 2961 2953 2946 2939 2935
3144 3142 3140 3139 3138 3136 3133 3130 3126 3122 3118 3113 3108 3103 3096 3091 3088 3079 3074 3066 3059 3052 3050 3050 3045 3040 3037 3033 3029 3022 3016 3011 3004 3000 2996 2993 2989 2985 2981 2977 2971 2961 2957 2948 2939 2935 2924
3142 3141 3139 3138 3136 3134 3131 3128 3124 3120 3116 3113 3108 3102 3096 3090 3084 3078 3072 3064 3057 3053 3051 3049 3043 3041 3035 3033 3028 3025 3016 3010 3006 3000 2999 2994 2987 2983 2978 2974 2969 2960 2950 2940 2930 2923 2922
3141 3140 3138 3136 3134 3132 3129 3126 3122 3119 3114 3111 3106 3100 3095 3089 3083 3077 3070 3063 3057 3055 3052 3051 3046 3040 3037 3034 3029 3024 3020 3014 3004 2998 2996 2990 2984 2981 2977 2971 2966 2959 2945 2930 2918 2916 2913
3139 3138 3136 3135 3133 3130 3127 3124 3120 3117 3114 3108 3103 3098 3093 3086 3080 3073 3068 3063 3059 3057 3058 3050 3044 3038 3036 3032 3027 3022 3018 3012 3007 2997 2993 2987 2984 2981 2976 2970 2962 2956 2943 2925 2918 2911 2906
3136 3135 3134 3133 3131 3128 3126 3122 3118 3115 3111 3106 3102 3096 3091 3084 3078 3071 3066 3061 3061 3057 3053 3049 3042 3038 3037 3030 3025 3021 3020 3016 3012 3007 2996 2990 2982 2980 2976 2971 2963 2958 2954 2948 2934 2920 2913
3134 3133 3132 3131 3129 3127 3124 3120 3117 3113 3108 3105 3099 3093 3088 3082 3077 3070 3067 3063 3065 3058 3053 3046 3041 3038 3039 3034 3028 3023 3020 3016 3011 3008 3006 2996 2985 2978 2977 2971 2965 2958 2952 2947 2938 2927 2916
3132 3131 3130 3129 3127 3124 3121 3118 3115 3111 3107 3103 3098 3092 3088 3082 3076 3071 3067 3065 3061 3057 3051 3047 3044 3041 3038 3032 3028 3024 3020 3016 3014 3011 3008 3002 2987 2978 2974 2971 2968 2964 2957 2944 2940 2926 2916
3129 3129 3128 3127 3125 3122 3119 3116 3113 3109 3105 3101 3096 3090 3086 3081 3075 3071 3066 3063 3058 3052 3049 3048 3044 3041 3038 3034 3029 3025 3021 3018 3013 3008 3006 3001 2996 2979 2975 2973 2967 2960 2955 2951 2943 2935 2928
3127 3126 3126 3124 3122 3120 3117 3114 3111 3107 3103 3099 3094 3089 3084 3079 3077 3067 3064 3062 3057 3052 3048 3046 3043 3039 3038 3035 3028 3025 3023 3020 3016 3011 3004 3000 2992 2981 2973 2971 2969 2965 2959 2954 2947 2940 2936
3124 3124 3123 3121 3120 3118 3115 3113 3109 3105 3102 3098 3092 3088 3083 3078 3073 3067 3063 3060 3056 3051 3048 3045 3043 3040 3038 3035 3032 3024 3022 3020 3015 3011 3005 3000 2993 2982 2973 2972 2970 2965 2960 2955 2950 2944 2938
3121 3121 3120 3118 3117 3115 3113 3110 3107 3104 3100 3096 3091 3087 3080 3076 3071 3068 3063 3059 3055 3051 3047 3044 3041 3039 3037 3032 3031 3024 3021 3018 3014 3010 3005 3001 2995 2991 2986 2978 2974 2969 2962 2956 2951 2947 2940
3119 3118 3117 3115 3114 3113 3111 3108 3105 3102 3098 3095 3090 3085 3080 3076 3067 3064 3061 3057 3053 3050 3047 3043 3040 3038 3037 3031 3026 3022 3020 3014 3011 3007 3004 2999 2992 2989 2980 2974 2972 2969 2965 2956 2951 2948 2944
3116 3115 3114 3113 3112 3111 3109 3105 3102 3100 3096 3092 3088 3084 3077 3073 3068 3063 3059 3056 3053 3050 3047 3044 3040 3037 3033 3030 3028 3018 3017 3013 3010 3008 3003 2999 2993 2986 2977 2974 2972 2970 2966 2958 2953 2947 2942
3112 3111 3111 3110 3109 3108 3105 3103 3100 3097 3094 3089 3083 3080 3076 3071 3067 3063 3060 3055 3052 3048 3045 3041 3038 3033 3030 3027 3021 3017 3013 3010 3008 3005 3002 2998 2993 2987 2978 2973 2970 2971 2966 2959 2955 2948 2941
3107 3107 3107 3106 3105 3104 3102 3100 3097 3093 3090 3086 3082 3078 3074 3069 3065 3063 3059 3055 3051 3048 3044 3040 3036 3032 3029 3024 3019 3014 3011 3009 3007 3005 3003 2997 2993 2990 2980 2972 2967 2972 2970 2961 2956 2951 2946
3103 3103 3102 3102 3102 3100 3099 3097 3094 3090 3087 3083 3079 3076 3071 3066 3063 3059 3055 3052 3049 3046 3043 3039 3036 3032 3027 3022 3017 3014 3013 3011 3009 3008 3004 3000 2995 2991 2987 2978 2974 2971 2965 2956 2953 2954 2949
3098 3099 3098 3098 3098 3096 3094 3092 3090 3087 3083 3080 3076 3072 3068 3065 3061 3057 3053 3050 3048 3045 3042 3038 3035 3031 3026 3021 3021 3018 3016 3014 3010 3008 3005 2999 2996 2997 2989 2982 2975 2976 2969 2964 2956 2954 2948
3092 3093 3093 3093 3092 3091 3089 3087 3085 3082 3079 3076 3073 3069 3064 3061 3058 3054 3051 3049 3045 3042 3040 3037 3034 3031 3027 3025 3024 3021 3019 3017 3013 3010 3005 3000 2995 2995 2991 2986 2983 2978 2971 2964 2961 2965 2948
3087 3087 3087 3087 3086 3085 3083 3082 3080 3077 3074 3071 3068 3064 3061 3057 3053 3051 3048 3046 3043 3041 3039 3037 3035 3031 3028 3025 3025 3024 3020 3017 3013 3012 3008 3006 3001 2997 2994 2989 2986 2980 2974 2968 2970 2963 2956
3080 3081 3081 3080 3080 3080 3078 3076 3075 3072 3069 3067 3064 3061 3058 3055 3052 3048 3045 3043 3042 3039 3038 3036 3035 3032 3030 3028 3026 3023 3022 3018 3014 3011 3007 3007 3007 3003 3001 2995 2991 2985 2980 2975 2968 2961 2955